Temp
57 57 57 57 55 55 55 56 55 57 57 59 58 58 57 56 55 55 54 55 55 54 53 51 51 52 52 52 50 53 52 52
57 56 54 53 53 54 54 54 53 54 54 54 56 54 54 53 55 54 54 53 54 52 52 52 51 50 49 51 49 49 51 52
53 52 52 52 52 53 53 53 53 53 52 52 53 52 52 53 53 54 54 53 53 55 51 51 49 49 49 49 48 47 48 50
53 54 52 52 53 52 53 53 52 53 53 53 53 52 52 52 50 52 52 53 53 52 52 51 50 49 48 47 47 46 45 47
54 54 52 51 50 52 53 52 52 53 52 51 49 47 48 47 47 48 50 51 51 52 50 49 48 48 47 48 47 45 45 44
52 52 51 52 52 51 51 52 53 50 50 49 48 46 46 47 47 47 47 48 49 50 49 47 47 48 46 45 45 44 44 43
53 52 52 49 48 49 49 50 50 50 49 48 47 46 46 45 45 44 45 46 46 47 48 46 46 46 46 45 44 43 43 42
50 50 49 49 48 48 49 50 49 50 49 48 47 46 46 44 44 43 44 44 44 45 46 45 45 45 45 44 44 43 42 41
51 50 50 49 49 48 48 49 48 48 48 47 47 47 45 45 44 44 43 44 44 45 45 45 46 46 45 43 42 41 41 40
50 50 50 49 48 47 47 48 48 48 48 46 46 46 45 44 44 44 44 45 49 45 45 45 45 45 44 43 40 40 39 39
50 50 49 49 48 47 47 48 48 47 47 46 47 46 45 45 45 44 44 44 45 45 44 44 45 43 43 41 39 39 39 38
50 50 50 50 48 46 46 47 48 46 47 46 45 45 45 45 44 43 44 44 44 45 45 45 44 43 41 40 39 39 39 38
52 50 49 48 48 46 46 46 47 47 47 47 45 45 45 44 44 44 44 43 44 45 45 45 44 43 41 40 39 39 37 37
51 50 50 49 49 48 47 47 47 47 47 46 45 44 44 43 43 44 44 44 44 44 44 44 43 42 40 39 38 38 37 37
51 50 50 50 50 49 48 47 48 48 47 45 44 43 44 43 43 43 43 43 43 43 43 44 43 41 40 39 38 36 36 37
53 50 50 50 50 50 50 48 48 48 47 45 44 44 44 44 43 42 42 43 43 43 43 43 41 41 41 37 36 35 35 35
54 53 52 51 51 50 50 49 47 48 46 45 46 45 45 43 42 41 41 41 41 42 41 42 39 43 39 40 37 34 35 35
55 54 53 53 52 52 49 49 48 47 46 47 47 46 44 43 43 42 41 40 39 39 40 40 37 37 39 40 38 35 34 33
57 56 55 55 54 52 51 50 49 48 46 47 47 46 44 42 42 41 39 39 39 39 39 38 37 39 38 39 37 34 33 33
MSLP
1021.98 1022.16 1022.41 1022.73 1022.78 1022.53 1022.38 1022.11 1021.60 1021.44 1021.44 1021.90 1022.25 1022.48 1022.72 1022.87 1022.89 1022.98 1022.84 1022.81 1022.71 1022.67 1022.61 1022.39 1021.99 1021.91 1021.76 1021.44 1021.18 1020.80 1020.49 1019.78
1021.83 1022.29 1022.59 1023.03 1023.10 1022.92 1022.89 1022.40 1022.48 1021.83 1022.25 1022.32 1022.57 1023.05 1023.29 1023.60 1023.79 1023.78 1023.46 1023.27 1023.33 1023.10 1023.23 1022.83 1022.47 1022.48 1022.48 1022.22 1021.72 1021.45 1020.78 1020.08
1022.21 1022.62 1022.92 1023.25 1023.30 1023.45 1023.19 1022.84 1022.82 1022.28 1022.61 1022.66 1023.11 1023.49 1024.14 1024.08 1024.55 1024.42 1023.97 1023.72 1023.81 1023.49 1023.90 1023.41 1023.16 1023.13 1022.86 1022.66 1022.50 1022.33 1021.90 1021.35
1022.59 1022.48 1022.97 1023.31 1023.47 1023.59 1023.33 1023.31 1023.13 1023.23 1022.98 1023.12 1023.28 1023.59 1024.47 1024.51 1024.86 1025.03 1024.89 1024.55 1024.24 1024.28 1024.38 1023.92 1023.76 1023.67 1023.69 1023.56 1023.32 1023.20 1023.15 1022.45
1022.13 1022.55 1022.96 1023.36 1023.74 1023.61 1023.90 1023.92 1023.47 1023.86 1023.61 1023.71 1024.18 1024.64 1025.30 1025.46 1025.53 1025.55 1025.41 1025.39 1025.11 1024.74 1024.95 1024.53 1024.54 1024.51 1024.37 1024.23 1024.16 1024.06 1023.84 1023.61
1021.84 1022.46 1022.97 1023.68 1023.91 1023.99 1024.15 1023.79 1024.25 1024.35 1024.14 1024.37 1024.95 1025.53 1025.75 1025.62 1026.08 1026.00 1026.17 1025.85 1025.74 1025.65 1025.35 1025.14 1025.19 1025.11 1024.94 1024.91 1024.79 1024.50 1024.45 1024.46
1021.52 1022.37 1023.14 1023.68 1023.93 1024.08 1024.31 1024.45 1024.74 1024.70 1024.79 1025.21 1025.53 1025.91 1026.09 1026.23 1026.69 1026.66 1026.72 1026.61 1026.27 1026.26 1025.73 1025.64 1025.63 1025.55 1025.33 1025.32 1025.37 1025.25 1025.03 1025.04
1021.43 1022.34 1023.14 1023.70 1024.03 1024.32 1024.62 1024.95 1025.06 1025.27 1025.61 1025.85 1025.89 1026.06 1026.18 1026.95 1027.33 1027.00 1027.16 1026.77 1026.81 1026.71 1026.33 1026.20 1025.89 1026.07 1025.93 1025.88 1025.82 1025.92 1025.68 1025.60
1021.14 1022.01 1022.79 1023.34 1023.89 1024.27 1024.76 1025.38 1025.66 1025.70 1025.81 1025.93 1026.05 1026.26 1026.90 1027.19 1027.36 1027.07 1026.85 1026.94 1026.93 1026.73 1026.65 1026.54 1026.21 1026.17 1026.43 1026.52 1026.35 1026.45 1026.30 1026.04
1020.88 1021.79 1022.49 1023.20 1023.89 1024.39 1024.75 1025.38 1025.68 1025.65 1025.88 1026.00 1026.40 1026.89 1027.28 1027.16 1027.23 1026.95 1026.96 1026.96 1026.80 1026.97 1026.95 1026.81 1026.53 1026.85 1027.07 1026.86 1027.10 1027.00 1026.91 1026.48
1020.74 1021.68 1022.39 1022.95 1023.41 1024.05 1024.43 1024.77 1025.27 1025.74 1026.11 1026.39 1026.69 1026.93 1027.18 1027.10 1027.10 1027.32 1027.38 1027.33 1027.36 1027.28 1027.15 1026.92 1027.14 1027.32 1027.35 1027.44 1027.54 1027.14 1026.85 1026.51
1020.30 1021.24 1021.89 1022.42 1023.03 1023.85 1024.46 1024.80 1025.38 1025.92 1026.34 1026.41 1026.72 1027.14 1027.22 1027.29 1027.54 1027.48 1027.52 1027.59 1027.56 1027.38 1027.20 1027.12 1027.40 1027.72 1027.70 1027.54 1027.34 1027.13 1026.94 1026.67
1019.71 1020.68 1021.52 1022.35 1022.79 1023.59 1024.31 1024.94 1025.56 1025.89 1026.09 1026.49 1026.91 1027.07 1027.31 1027.47 1027.56 1027.68 1027.57 1027.62 1027.53 1027.37 1027.39 1027.32 1027.45 1027.57 1027.62 1027.64 1027.47 1027.30 1027.12 1026.83
1019.41 1020.41 1021.22 1021.90 1022.58 1023.45 1024.28 1024.86 1025.19 1025.65 1026.15 1026.47 1026.75 1027.07 1027.25 1027.44 1027.55 1027.56 1027.50 1027.61 1027.60 1027.50 1027.35 1027.26 1027.40 1027.69 1027.81 1027.74 1027.69 1027.60 1027.39 1027.07
1018.87 1019.95 1020.70 1021.45 1022.23 1023.05 1023.84 1024.47 1024.85 1025.45 1025.90 1026.19 1026.60 1026.86 1027.10 1027.31 1027.54 1027.66 1027.67 1027.64 1027.58 1027.42 1027.29 1027.34 1027.50 1027.76 1027.88 1027.92 1027.81 1027.65 1027.39 1027.11
1018.00 1019.05 1020.01 1020.94 1021.84 1022.60 1023.28 1023.97 1024.52 1024.94 1025.55 1026.02 1026.34 1026.62 1027.03 1027.37 1027.60 1027.72 1027.65 1027.55 1027.47 1027.38 1027.36 1027.40 1027.57 1027.76 1027.95 1028.04 1027.90 1027.62 1027.38 1027.02
1017.08 1018.12 1019.16 1020.13 1021.05 1021.90 1022.66 1023.38 1024.08 1024.43 1025.20 1025.80 1026.13 1026.55 1026.95 1027.23 1027.46 1027.60 1027.65 1027.67 1027.64 1027.51 1027.55 1027.58 1027.71 1027.81 1027.98 1027.79 1027.66 1027.63 1027.36 1027.09
1015.96 1017.08 1018.13 1019.15 1020.15 1021.05 1022.00 1022.80 1023.50 1024.17 1024.89 1025.45 1025.90 1026.29 1026.71 1027.01 1027.26 1027.48 1027.63 1027.67 1027.66 1027.66 1027.65 1027.72 1027.90 1028.05 1027.96 1027.79 1027.60 1027.54 1027.43 1027.13
1014.89 1016.06 1017.29 1018.29 1019.35 1020.43 1021.30 1022.31 1023.09 1023.82 1024.52 1025.09 1025.52 1025.96 1026.45 1026.80 1027.17 1027.44 1027.59 1027.60 1027.64 1027.70 1027.83 1027.84 1027.96 1028.06 1027.96 1027.78 1027.58 1027.56 1027.36 1027.08
Wind_Speed
7 8 7 6 6 6 6 6 8 7 7 7 5 7 7 6 7 7 7 8 8 6 7 7 6 7 8 8 5 6 6 8
9 6 7 7 5 7 6 8 7 5 4 4 6 7 5 6 7 6 8 7 7 7 5 7 6 8 7 9 6 6 9 11
7 7 7 6 6 5 6 7 7 6 3 3 4 4 4 5 5 8 9 9 8 10 7 8 8 6 9 11 10 4 5 9
7 7 7 6 6 6 7 7 7 7 7 5 4 5 4 6 5 6 7 9 9 9 9 8 9 8 8 8 9 11 7 6
8 7 6 7 5 6 6 5 8 7 7 8 8 5 6 2 3 3 6 8 9 9 9 9 8 6 9 8 7 5 6 8
10 9 8 7 7 7 6 8 7 6 8 8 7 7 4 3 4 7 6 6 7 7 7 7 7 6 7 8 8 9 7 4
12 9 8 7 6 7 7 8 6 7 8 7 8 8 7 6 5 5 4 4 4 6 7 6 6 6 8 7 7 8 8 5
13 13 9 8 8 7 7 7 6 7 7 7 7 8 9 7 4 4 4 3 3 5 5 5 5 5 6 6 8 7 8 6
15 14 10 9 9 8 8 8 6 7 7 7 7 8 4 4 4 4 4 3 3 5 6 5 6 7 7 6 6 5 6 5
16 13 11 9 10 9 10 8 7 7 7 6 6 6 6 5 5 5 4 4 3 6 6 6 7 7 5 6 4 5 5 5
14 13 11 8 10 8 8 9 8 7 7 6 5 6 6 6 6 6 5 4 3 4 5 5 6 5 6 5 2 3 5 4
16 13 12 11 9 9 7 8 8 7 7 6 7 6 6 6 5 4 3 3 2 4 4 4 5 5 3 4 4 5 6 6
16 14 12 11 11 9 8 7 8 7 7 6 7 6 6 6 5 4 3 3 2 4 3 3 4 5 5 5 6 6 6 7
14 13 14 13 10 9 9 8 8 7 7 7 6 6 6 5 5 4 3 3 3 3 4 4 5 5 5 5 5 5 5 5
16 14 14 13 12 11 10 8 8 8 7 7 7 7 6 5 4 4 4 3 3 3 3 4 4 5 5 4 5 5 5 5
18 16 14 14 13 12 11 10 8 8 8 7 7 6 6 5 5 4 3 3 2 2 3 4 3 4 3 4 4 5 5 6
19 18 18 17 16 14 12 11 9 8 8 7 6 7 6 6 6 4 3 2 2 2 3 3 4 4 4 7 4 4 5 6
20 20 19 17 16 15 13 12 9 8 8 7 7 7 6 6 6 4 3 1 1 3 3 3 5 3 4 7 5 4 5 5
20 18 17 16 15 14 13 12 11 10 8 8 7 7 6 6 6 4 2 1 1 2 3 4 5 3 2 5 6 6 5 6
Wind_Direction
128 114 105 95 75 54 43 33 37 51 81 93 81 75 67 52 51 46 36 42 38 45 42 34 31 32 24 19 11 10 11 339
123 109 107 97 59 61 42 52 16 58 64 87 80 78 71 58 52 43 48 41 39 40 31 35 31 36 21 19 3 5 14 356
121 117 114 107 115 87 58 54 40 41 70 79 99 94 73 91 65 43 41 40 33 47 35 36 29 26 29 25 25 1 360 11
156 132 125 121 105 102 77 56 56 46 59 77 64 60 56 70 45 51 29 34 39 41 37 39 35 34 31 28 24 25 20 358
150 134 131 118 121 101 99 83 71 63 62 74 80 90 90 55 76 73 47 31 34 44 41 38 35 32 38 34 26 26 23 31
153 152 146 148 145 122 113 83 72 66 69 84 84 79 83 90 61 65 43 32 32 30 44 42 42 39 41 40 28 28 30 35
149 154 150 137 130 116 105 98 84 71 76 79 96 96 81 68 57 63 49 35 29 23 39 43 38 42 40 38 25 23 22 20
147 148 156 142 141 133 121 113 100 93 90 94 95 92 89 98 92 84 71 50 28 23 39 40 39 39 39 44 33 20 15 15
155 155 158 145 143 146 128 130 127 119 108 100 95 89 95 106 96 90 81 68 57 36 34 40 38 45 44 45 34 14 8 6
156 157 155 147 147 152 147 140 137 123 114 102 100 111 110 109 87 74 65 49 52 44 46 47 40 53 58 56 38 15 354 345
158 160 160 151 145 149 142 138 134 138 129 129 124 119 111 101 84 80 74 58 56 60 56 55 49 77 62 63 46 356 3 343
161 164 163 156 139 143 148 139 135 139 144 129 119 125 115 108 109 105 106 89 101 79 72 63 73 113 81 56 25 20 9 345
161 161 157 158 151 139 153 152 149 158 151 139 137 130 126 116 116 130 114 86 68 79 76 73 76 101 60 45 32 8 359 348
160 158 163 163 158 153 158 165 157 159 153 143 139 138 129 132 126 122 93 89 68 53 63 49 59 97 61 41 28 1 343 332
168 167 168 166 166 165 162 168 160 159 152 145 145 147 142 140 131 120 106 108 74 54 52 56 106 89 66 36 9 355 347 350
176 171 170 171 169 170 165 164 162 155 150 149 156 146 146 147 128 121 99 73 51 48 42 35 83 89 67 27 5 351 351 337
180 175 173 174 173 173 168 164 165 150 148 158 157 147 155 148 136 126 101 60 7 8 17 28 78 88 60 19 20 355 346 333
179 180 178 176 174 171 167 167 158 154 151 159 164 156 162 157 152 132 135 160 328 338 340 54 110 120 56 15 351 8 345 330
181 179 178 176 169 169 160 161 162 158 160 163 166 161 168 165 160 161 186 216 258 308 22 82 132 119 50 10 18 11 344 331